,,Stat5,,Stat1,,Stat2,,Stat3,,Stat4,,Wind1,,Wind1,
time,status,PA1M_AVG,status,PR1M_SUM,status,RH1M_AVG,status,SR1M_AVG,status,TA1M_AVG,status,W1dAve1m,status,W1sAve1m,
2000-09-06, 00:00:00,VALID,918.15,VALID,0,VALID,97.8423,VALID,0.0679233,VALID,20.2037,VALID,172,VALID,0.640008,
2000-09-06, 00:01:00,VALID,918.15,VALID,0,VALID,97.8004,VALID,0.0339617,VALID,20.1908,VALID,167,VALID,0.537212,
2000-09-06, 00:02:00,VALID,918.153,VALID,0,VALID,97.5384,VALID,0,VALID,20.1488,VALID,164,VALID,0.44371,
2000-09-06, 00:03:00,VALID,918.146,VALID,0,VALID,97.3629,VALID,0.0509425,VALID,20.1326,VALID,161,VALID,0.496484,
2000-09-06, 00:04:00,VALID,918.139,VALID,0,VALID,97.3591,VALID,0.0169808,VALID,20.1296,VALID,152,VALID,0.61899,
2000-09-06, 00:05:00,VALID,918.139,VALID,0,VALID,97.3757,VALID,0.0169808,VALID,20.1167,VALID,147,VALID,0.547676,
2000-09-06, 00:06:00,VALID,918.118,VALID,0,VALID,97.4532,VALID,0.0339617,VALID,20.1165,VALID,151,VALID,0.503378,
2000-09-06, 00:07:00,VALID,918.089,VALID,0,VALID,97.6325,VALID,0.0509425,VALID,20.1455,VALID,166,VALID,0.475781,
2000-09-06, 00:08:00,VALID,918.071,VALID,0,VALID,97.6554,VALID,0.0169808,VALID,20.1356,VALID,180,VALID,0.421645,
2000-09-06, 00:09:00,VALID,918.041,VALID,0,VALID,97.7826,VALID,0,VALID,20.1393,VALID,201,VALID,0.647461,
2000-09-06, 00:10:00,VALID,918.022,VALID,0,VALID,97.8512,VALID,0.0679233,VALID,20.1361,VALID,229,VALID,0.501002,
2000-09-06, 00:11:00,VALID,917.999,VALID,0,VALID,97.9085,VALID,0.0169808,VALID,20.1396,VALID,196,VALID,0.587993,
2000-09-06, 00:12:00,VALID,917.987,VALID,0,VALID,97.9339,VALID,0.0509425,VALID,20.1331,VALID,193,VALID,0.509046,
2000-09-06, 00:13:00,VALID,917.981,VALID,0,VALID,98.0204,VALID,0.0339617,VALID,20.1262,VALID,190,VALID,0.666797,
2000-09-06, 00:14:00,VALID,917.972,VALID,0,VALID,98.089,VALID,0,VALID,20.107,VALID,178,VALID,0.504492,
2000-09-06, 00:15:00,VALID,917.972,VALID,0,VALID,97.9314,VALID,-0.0339617,VALID,20.072,VALID,170,VALID,0.410857,
2000-09-06, 00:16:00,VALID,917.973,VALID,0,VALID,97.6948,VALID,-0.0169808,VALID,20.0076,VALID,160,VALID,0.62685,
2000-09-06, 00:17:00,VALID,917.967,VALID,0,VALID,97.8919,VALID,-0.0169808,VALID,20.0238,VALID,143,VALID,0.736979,
2000-09-06, 00:18:00,VALID,917.958,VALID,0,VALID,97.9441,VALID,-0.0339617,VALID,20.0238,VALID,145,VALID,0.679487,
2000-09-06, 00:19:00,VALID,917.946,VALID,0,VALID,98.0878,VALID,0,VALID,20.033,VALID,153,VALID,0.671242,
2000-09-06, 00:20:00,VALID,917.944,VALID,0,VALID,97.9619,VALID,-0.0169808,VALID,20.0106,VALID,152,VALID,0.402244,
2000-09-06, 00:21:00,VALID,917.913,VALID,0,VALID,97.78,VALID,0,VALID,19.9748,VALID,152,VALID,0.270399,
2000-09-06, 00:22:00,VALID,917.907,VALID,0,VALID,97.7826,VALID,-0.0509425,VALID,19.9689,VALID,153,VALID,0.425564,
2000-09-06, 00:23:00,VALID,917.879,VALID,0,VALID,97.794,VALID,0,VALID,19.9654,VALID,161,VALID,0.321484,
2000-09-06, 00:24:00,VALID,917.865,VALID,0,VALID,97.8487,VALID,-0.0509425,VALID,19.9726,VALID,174,VALID,0.154983,
2000-09-06, 00:25:00,VALID,917.854,VALID,0,VALID,97.8716,VALID,-0.0169808,VALID,19.9594,VALID,189,VALID,0,
2000-09-06, 00:26:00,VALID,917.833,VALID,0,VALID,97.9097,VALID,0,VALID,19.9395,VALID,205,VALID,0,
2000-09-06, 00:27:00,VALID,917.823,VALID,0,VALID,97.9619,VALID,-0.0169808,VALID,19.9328,VALID,210,VALID,0,
2000-09-06, 00:28:00,VALID,917.803,VALID,0,VALID,97.9873,VALID,0,VALID,19.9338,VALID,210,VALID,0,
2000-09-06, 00:29:00,VALID,917.78,VALID,0,VALID,98.0458,VALID,0.0509425,VALID,19.9296,VALID,210,VALID,0,
2000-09-06, 00:30:00,VALID,917.75,VALID,0,VALID,98.1119,VALID,0.0679233,VALID,19.9224,VALID,210,VALID,0,
2000-09-06, 00:31:00,VALID,917.742,VALID,0,VALID,98.0916,VALID,0.0849042,VALID,19.8995,VALID,220,VALID,0.130409,
2000-09-06, 00:32:00,VALID,917.748,VALID,0,VALID,98.0967,VALID,0.101885,VALID,19.8938,VALID,229,VALID,0.433594,
2000-09-06, 00:33:00,VALID,917.753,VALID,0,VALID,98.1399,VALID,0.101885,VALID,19.8901,VALID,223,VALID,0.387035,
2000-09-06, 00:34:00,VALID,917.752,VALID,0,VALID,98.192,VALID,0.0679233,VALID,19.9065,VALID,223,VALID,0.484575,
2000-09-06, 00:35:00,VALID,917.766,VALID,0,VALID,98.3205,VALID,0.0339617,VALID,19.9092,VALID,223,VALID,0.153493,
2000-09-06, 00:36:00,VALID,917.775,VALID,0,VALID,98.3955,VALID,0.0849042,VALID,19.9388,VALID,223,VALID,0,
2000-09-06, 00:37:00,VALID,917.772,VALID,0,VALID,98.4286,VALID,0.0679233,VALID,19.9522,VALID,223,VALID,0,
2000-09-06, 00:38:00,VALID,917.786,VALID,0,VALID,98.4311,VALID,0.0339617,VALID,19.9525,VALID,223,VALID,0,
2000-09-06, 00:39:00,VALID,917.772,VALID,0,VALID,98.3319,VALID,0.0509425,VALID,19.9326,VALID,223,VALID,0,
2000-09-06, 00:40:00,VALID,917.779,VALID,0,VALID,97.9809,VALID,0.0509425,VALID,19.8483,VALID,223,VALID,0.00820312,
2000-09-06, 00:41:00,VALID,917.776,VALID,0,VALID,97.8017,VALID,0.0679233,VALID,19.7869,VALID,210,VALID,0.334087,
2000-09-06, 00:42:00,VALID,917.783,VALID,0,VALID,98.1615,VALID,0.0849042,VALID,19.8257,VALID,206,VALID,0.63978,
2000-09-06, 00:43:00,VALID,917.776,VALID,0,VALID,98.4642,VALID,0.0849042,VALID,19.8839,VALID,197,VALID,0.620593,
2000-09-06, 00:44:00,VALID,917.755,VALID,0,VALID,98.5888,VALID,0.0169808,VALID,19.9341,VALID,196,VALID,0.632212,
2000-09-06, 00:45:00,VALID,917.745,VALID,0,VALID,98.5837,VALID,-0.0339617,VALID,19.9376,VALID,207,VALID,0.470806,
2000-09-06, 00:46:00,VALID,917.708,VALID,0,VALID,98.5735,VALID,-0.0339617,VALID,19.9371,VALID,226,VALID,0.4981,
2000-09-06, 00:47:00,VALID,917.7,VALID,0,VALID,98.5621,VALID,-0.0339617,VALID,19.9371,VALID,234,VALID,0.153045,
2000-09-06, 00:48:00,VALID,917.684,VALID,0,VALID,98.5748,VALID,-0.0509425,VALID,19.9472,VALID,218,VALID,0,
2000-09-06, 00:49:00,VALID,917.667,VALID,0,VALID,98.4756,VALID,-0.0339617,VALID,19.9269,VALID,220,VALID,0,
2000-09-06, 00:50:00,VALID,917.67,VALID,0,VALID,98.3383,VALID,-0.0509425,VALID,19.902,VALID,221,VALID,0,
2000-09-06, 00:51:00,VALID,917.652,VALID,0,VALID,97.9123,VALID,-0.0679233,VALID,19.8235,VALID,220,VALID,0,
2000-09-06, 00:52:00,VALID,917.638,VALID,0,VALID,97.1811,VALID,-0.0169808,VALID,19.7271,VALID,179,VALID,0,
2000-09-06, 00:53:00,VALID,917.626,VALID,0,VALID,96.8098,VALID,-0.0509425,VALID,19.6692,VALID,175,VALID,0,
2000-09-06, 00:54:00,VALID,917.622,VALID,0,VALID,96.9522,VALID,-0.0509425,VALID,19.6627,VALID,175,VALID,0,
2000-09-06, 00:55:00,VALID,917.605,VALID,0,VALID,97.1468,VALID,-0.0509425,VALID,19.6468,VALID,175,VALID,0,
2000-09-06, 00:56:00,VALID,917.585,VALID,0,VALID,97.4914,VALID,-0.0679233,VALID,19.6627,VALID,195,VALID,0,
2000-09-06, 00:57:00,VALID,917.585,VALID,0,VALID,97.9428,VALID,-0.0339617,VALID,19.6952,VALID,199,VALID,0,
2000-09-06, 00:58:00,VALID,917.569,VALID,0,VALID,98.1577,VALID,-0.0679233,VALID,19.7181,VALID,198,VALID,0.148828,
2000-09-06, 00:59:00,VALID,917.557,VALID,0,VALID,98.3154,VALID,-0.0169808,VALID,19.7303,VALID,196,VALID,0.875868,
2000-09-06, 01:00:00,VALID,917.544,VALID,0,VALID,98.4413,VALID,0.0509425,VALID,19.7454,VALID,185,VALID,0.851985,
2000-09-06, 01:01:00,VALID,917.542,VALID,0,VALID,98.44,VALID,0.0169808,VALID,19.7427,VALID,171,VALID,0.842722,
2000-09-06, 01:02:00,VALID,917.53,VALID,0,VALID,98.3815,VALID,0.0509425,VALID,19.7002,VALID,166,VALID,0.98982,
2000-09-06, 01:03:00,VALID,917.53,VALID,0,VALID,98.337,VALID,0.0679233,VALID,19.6779,VALID,152,VALID,0.988281,
2000-09-06, 01:04:00,VALID,917.53,VALID,0,VALID,98.014,VALID,0.0509425,VALID,19.5805,VALID,128,VALID,0.851953,
2000-09-06, 01:05:00,VALID,917.518,VALID,0,VALID,97.7978,VALID,0.0509425,VALID,19.5191,VALID,123,VALID,0.985403,
2000-09-06, 01:06:00,VALID,917.524,VALID,0,VALID,97.8601,VALID,0.0339617,VALID,19.5161,VALID,133,VALID,0.693873,
2000-09-06, 01:07:00,VALID,917.534,VALID,0,VALID,97.9428,VALID,0.0169808,VALID,19.4773,VALID,140,VALID,0.643029,
2000-09-06, 01:08:00,VALID,917.537,VALID,0,VALID,98.0305,VALID,0.0509425,VALID,19.4905,VALID,151,VALID,0.626202,
2000-09-06, 01:09:00,VALID,917.545,VALID,0,VALID,98.1272,VALID,0.0679233,VALID,19.4905,VALID,152,VALID,0.634868,
2000-09-06, 01:10:00,VALID,917.558,VALID,0,VALID,98.1971,VALID,0.0509425,VALID,19.4773,VALID,164,VALID,0.805099,
2000-09-06, 01:11:00,VALID,917.564,VALID,0,VALID,98.2823,VALID,0.0509425,VALID,19.5064,VALID,194,VALID,0.608008,
2000-09-06, 01:12:00,VALID,917.558,VALID,0,VALID,98.4222,VALID,0.0509425,VALID,19.5134,VALID,214,VALID,0.785045,
2000-09-06, 01:13:00,VALID,917.556,VALID,0,VALID,98.454,VALID,0.0509425,VALID,19.4967,VALID,219,VALID,0.949747,
2000-09-06, 01:14:00,VALID,917.565,VALID,0,VALID,98.4807,VALID,0.0169808,VALID,19.4977,VALID,217,VALID,0.875822,
2000-09-06, 01:15:00,VALID,917.563,VALID,0,VALID,98.5519,VALID,0,VALID,19.485,VALID,226,VALID,0.657335,
2000-09-06, 01:16:00,VALID,917.548,VALID,0,VALID,98.6549,VALID,-0.0169808,VALID,19.4917,VALID,214,VALID,0.781901,
2000-09-06, 01:17:00,VALID,917.533,VALID,0,VALID,98.7782,VALID,0,VALID,19.5111,VALID,199,VALID,0.597862,
2000-09-06, 01:18:00,VALID,917.515,VALID,0,VALID,98.8571,VALID,-0.0339617,VALID,19.5307,VALID,214,VALID,0.75558,
2000-09-06, 01:19:00,VALID,917.5,VALID,0,VALID,98.955,VALID,-0.0339617,VALID,19.5725,VALID,215,VALID,0.640625,
2000-09-06, 01:20:00,VALID,917.48,VALID,0,VALID,98.9995,VALID,-0.0169808,VALID,19.6018,VALID,222,VALID,0.402561,
2000-09-06, 01:21:00,VALID,917.482,VALID,0,VALID,99.0059,VALID,-0.0339617,VALID,19.605,VALID,222,VALID,0.5,
2000-09-06, 01:22:00,VALID,917.476,VALID,0,VALID,99.0351,VALID,-0.0679233,VALID,19.5986,VALID,208,VALID,0.446135,
2000-09-06, 01:23:00,VALID,917.476,VALID,0,VALID,99.0377,VALID,-0.0169808,VALID,19.5986,VALID,221,VALID,0.641036,
2000-09-06, 01:24:00,VALID,917.487,VALID,0,VALID,99.0529,VALID,-0.0169808,VALID,19.5988,VALID,209,VALID,0.6633,
2000-09-06, 01:25:00,VALID,917.492,VALID,0,VALID,99.0796,VALID,-0.0169808,VALID,19.5916,VALID,224,VALID,0.784255,
2000-09-06, 01:26:00,VALID,917.475,VALID,0,VALID,99.133,VALID,0,VALID,19.6048,VALID,221,VALID,0.670673,
2000-09-06, 01:27:00,VALID,917.45,VALID,0,VALID,99.1788,VALID,0,VALID,19.6172,VALID,214,VALID,0.906883,
2000-09-06, 01:28:00,VALID,917.419,VALID,0,VALID,99.1966,VALID,-0.0169808,VALID,19.6368,VALID,213,VALID,0.561328,
2000-09-06, 01:29:00,VALID,917.4,VALID,0,VALID,99.2042,VALID,-0.0169808,VALID,19.6436,VALID,221,VALID,0.407629,
2000-09-06, 01:30:00,VALID,917.381,VALID,0,VALID,99.2144,VALID,-0.0169808,VALID,19.6306,VALID,223,VALID,0.696094,
2000-09-06, 01:31:00,VALID,917.364,VALID,0,VALID,99.2284,VALID,0,VALID,19.6304,VALID,225,VALID,0.752404,
2000-09-06, 01:32:00,VALID,917.342,VALID,0,VALID,99.2411,VALID,0,VALID,19.6403,VALID,233,VALID,0.592516,
2000-09-06, 01:33:00,VALID,917.319,VALID,0,VALID,99.2347,VALID,0,VALID,19.6212,VALID,234,VALID,0.89082,
2000-09-06, 01:34:00,VALID,917.3,VALID,0,VALID,99.2347,VALID,-0.0169808,VALID,19.6177,VALID,232,VALID,0.778711,
2000-09-06, 01:35:00,VALID,917.273,VALID,0,VALID,99.2398,VALID,0,VALID,19.5983,VALID,227,VALID,0.926172,
2000-09-06, 01:36:00,VALID,917.263,VALID,0,VALID,99.2297,VALID,0,VALID,19.5755,VALID,229,VALID,0.828726,
2000-09-06, 01:37:00,VALID,917.253,VALID,0,VALID,99.2271,VALID,0.0339617,VALID,19.5563,VALID,211,VALID,0.718133,
2000-09-06, 01:38:00,VALID,917.249,VALID,0,VALID,99.2525,VALID,0,VALID,19.5461,VALID,191,VALID,0.825521,
2000-09-06, 01:39:00,VALID,917.225,VALID,0,VALID,99.2576,VALID,0,VALID,19.5402,VALID,178,VALID,0.942708,
2000-09-06, 01:40:00,VALID,917.214,VALID,0,VALID,99.2742,VALID,-0.0169808,VALID,19.5305,VALID,163,VALID,1.0416,
2000-09-06, 01:41:00,VALID,917.204,VALID,0,VALID,99.2805,VALID,0,VALID,19.5111,VALID,171,VALID,0.966346,
2000-09-06, 01:42:00,VALID,917.178,VALID,0,VALID,99.3314,VALID,0,VALID,19.5111,VALID,172,VALID,1.27713,
2000-09-06, 01:43:00,VALID,917.158,VALID,0,VALID,99.3365,VALID,-0.0169808,VALID,19.5081,VALID,164,VALID,0.632378,
2000-09-06, 01:44:00,VALID,917.149,VALID,0,VALID,99.3352,VALID,0,VALID,19.4947,VALID,170,VALID,0.428516,
2000-09-06, 01:45:00,VALID,917.128,VALID,0,VALID,99.3466,VALID,-0.0169808,VALID,19.4721,VALID,180,VALID,0.679054,
2000-09-06, 01:46:00,VALID,917.109,VALID,0,VALID,99.3746,VALID,0,VALID,19.4691,VALID,185,VALID,0.693109,
2000-09-06, 01:47:00,VALID,917.097,VALID,0,VALID,99.3975,VALID,-0.0169808,VALID,19.4589,VALID,190,VALID,0.80551,
2000-09-06, 01:48:00,VALID,917.065,VALID,0,VALID,99.4026,VALID,0,VALID,19.4592,VALID,190,VALID,0.844703,
2000-09-06, 01:49:00,VALID,917.048,VALID,0,VALID,99.4229,VALID,0,VALID,19.453,VALID,187,VALID,1.1857,
2000-09-06, 01:50:00,VALID,917.012,VALID,0,VALID,99.4357,VALID,-0.0169808,VALID,19.4398,VALID,186,VALID,1.02069,
2000-09-06, 01:51:00,VALID,916.986,VALID,0,VALID,99.4496,VALID,0,VALID,19.437,VALID,185,VALID,1.02852,
2000-09-06, 01:52:00,VALID,916.952,VALID,0,VALID,99.442,VALID,0,VALID,19.4336,VALID,173,VALID,0.884816,
2000-09-06, 01:53:00,VALID,916.947,VALID,0,VALID,99.4293,VALID,-0.0169808,VALID,19.4047,VALID,178,VALID,0.888158,
2000-09-06, 01:54:00,VALID,916.941,VALID,0,VALID,99.4357,VALID,0,VALID,19.3784,VALID,185,VALID,0.87141,
2000-09-06, 01:55:00,VALID,916.943,VALID,0,VALID,99.4496,VALID,0,VALID,19.3593,VALID,194,VALID,0.941707,
2000-09-06, 01:56:00,VALID,916.931,VALID,0,VALID,99.4725,VALID,0.0339617,VALID,19.3665,VALID,225,VALID,0.767693,
2000-09-06, 01:57:00,VALID,916.927,VALID,0,VALID,99.4992,VALID,0,VALID,19.3598,VALID,222,VALID,0.58774,
2000-09-06, 01:58:00,VALID,916.903,VALID,0,VALID,99.5145,VALID,0,VALID,19.3526,VALID,212,VALID,0.602179,
2000-09-06, 01:59:00,VALID,916.884,VALID,0,VALID,99.5819,VALID,0.0169808,VALID,19.3886,VALID,210,VALID,1.03581,
2000-09-06, 02:00:00,VALID,916.871,VALID,0,VALID,99.6022,VALID,0.0339617,VALID,19.4035,VALID,202,VALID,0.628167,
2000-09-06, 02:01:00,VALID,916.856,VALID,0,VALID,99.5972,VALID,0.0169808,VALID,19.4102,VALID,220,VALID,0.660742,
2000-09-06, 02:02:00,VALID,916.843,VALID,0,VALID,99.6061,VALID,0.0339617,VALID,19.4137,VALID,198,VALID,0.693257,
2000-09-06, 02:03:00,VALID,916.846,VALID,0,VALID,99.601,VALID,0,VALID,19.3973,VALID,189,VALID,0.63788,
2000-09-06, 02:04:00,VALID,916.842,VALID,0,VALID,99.6226,VALID,0.0169808,VALID,19.407,VALID,186,VALID,0.720152,
2000-09-06, 02:05:00,VALID,916.831,VALID,0,VALID,99.6442,VALID,0,VALID,19.4239,VALID,182,VALID,0.728165,
2000-09-06, 02:06:00,VALID,916.834,VALID,0,VALID,99.6442,VALID,0,VALID,19.4177,VALID,185,VALID,0.577508,
2000-09-06, 02:07:00,VALID,916.83,VALID,0,VALID,99.6417,VALID,0,VALID,19.4043,VALID,206,VALID,0.546664,
2000-09-06, 02:08:00,VALID,916.836,VALID,0,VALID,99.6696,VALID,0.0169808,VALID,19.4137,VALID,218,VALID,0.533454,
2000-09-06, 02:09:00,VALID,916.836,VALID,0,VALID,99.6798,VALID,0.0169808,VALID,19.4398,VALID,237,VALID,0.870777,
2000-09-06, 02:10:00,VALID,916.849,VALID,0,VALID,99.7091,VALID,0.0169808,VALID,19.4689,VALID,231,VALID,0.600296,
2000-09-06, 02:11:00,VALID,916.864,VALID,0,VALID,99.7307,VALID,0,VALID,19.4974,VALID,251,VALID,0.29516,
2000-09-06, 02:12:00,VALID,916.884,VALID,0,VALID,99.7307,VALID,0.0169808,VALID,19.5278,VALID,260,VALID,0.00889757,
2000-09-06, 02:13:00,VALID,916.902,VALID,0,VALID,99.7103,VALID,0.0169808,VALID,19.5111,VALID,293,VALID,0.00117188,
2000-09-06, 02:14:00,VALID,916.915,VALID,0,VALID,99.7065,VALID,0.0169808,VALID,19.485,VALID,309,VALID,0,
2000-09-06, 02:15:00,VALID,916.931,VALID,0,VALID,99.7078,VALID,0,VALID,19.4689,VALID,304,VALID,0,
2000-09-06, 02:16:00,VALID,916.951,VALID,0,VALID,99.7027,VALID,0,VALID,19.4559,VALID,328,VALID,0.502878,
2000-09-06, 02:17:00,VALID,916.956,VALID,0,VALID,99.6913,VALID,0.0339617,VALID,19.404,VALID,315,VALID,0.259252,
2000-09-06, 02:18:00,VALID,916.96,VALID,0,VALID,99.6887,VALID,0.0169808,VALID,19.3911,VALID,329,VALID,0.246833,
2000-09-06, 02:19:00,VALID,916.956,VALID,0,VALID,99.6887,VALID,0,VALID,19.3816,VALID,360,VALID,0.592383,
2000-09-06, 02:20:00,VALID,916.958,VALID,0,VALID,99.7014,VALID,0,VALID,19.3846,VALID,56,VALID,0.501085,
2000-09-06, 02:21:00,VALID,916.956,VALID,0,VALID,99.6938,VALID,0.0169808,VALID,19.3784,VALID,56,VALID,0.566301,
2000-09-06, 02:22:00,VALID,916.946,VALID,0,VALID,99.6989,VALID,0,VALID,19.3533,VALID,41,VALID,0.359169,
2000-09-06, 02:23:00,VALID,916.944,VALID,0,VALID,99.7052,VALID,0,VALID,19.3431,VALID,10,VALID,0.271544,
2000-09-06, 02:24:00,VALID,916.947,VALID,0,VALID,99.7027,VALID,0.0169808,VALID,19.3528,VALID,328,VALID,0.378701,
2000-09-06, 02:25:00,VALID,916.943,VALID,0,VALID,99.7141,VALID,0.0169808,VALID,19.3496,VALID,325,VALID,0.163672,
2000-09-06, 02:26:00,VALID,916.94,VALID,0,VALID,99.718,VALID,0.0509425,VALID,19.3431,VALID,326,VALID,0,
2000-09-06, 02:27:00,VALID,916.921,VALID,0,VALID,99.7103,VALID,0.0169808,VALID,19.3233,VALID,325,VALID,0,
2000-09-06, 02:28:00,VALID,916.894,VALID,0,VALID,99.7141,VALID,0,VALID,19.3071,VALID,320,VALID,0,
2000-09-06, 02:29:00,VALID,916.856,VALID,0,VALID,99.7129,VALID,0.0679233,VALID,19.3133,VALID,305,VALID,0,
2000-09-06, 02:30:00,VALID,916.851,VALID,0,VALID,99.7243,VALID,0.0339617,VALID,19.3237,VALID,276,VALID,0,
2000-09-06, 02:31:00,VALID,916.825,VALID,0,VALID,99.7269,VALID,0.0169808,VALID,19.3205,VALID,255,VALID,0,
2000-09-06, 02:32:00,VALID,916.799,VALID,0,VALID,99.7167,VALID,0.0169808,VALID,19.291,VALID,239,VALID,0,
2000-09-06, 02:33:00,VALID,916.787,VALID,0,VALID,99.7103,VALID,0.0339617,VALID,19.285,VALID,233,VALID,0,
2000-09-06, 02:34:00,VALID,916.783,VALID,0,VALID,99.7014,VALID,0.0169808,VALID,19.2591,VALID,220,VALID,0,
2000-09-06, 02:35:00,VALID,916.776,VALID,0,VALID,99.69,VALID,0.0169808,VALID,19.2462,VALID,224,VALID,0.00287829,
2000-09-06, 02:36:00,VALID,916.793,VALID,0,VALID,99.69,VALID,0.0339617,VALID,19.207,VALID,226,VALID,0.314453,
2000-09-06, 02:37:00,VALID,916.817,VALID,0,VALID,99.6989,VALID,0,VALID,19.1911,VALID,216,VALID,0.887153,
2000-09-06, 02:38:00,VALID,916.845,VALID,0,VALID,99.7319,VALID,0,VALID,19.204,VALID,225,VALID,1.31332,
2000-09-06, 02:39:00,VALID,916.885,VALID,0,VALID,99.7345,VALID,0.0169808,VALID,19.2139,VALID,230,VALID,1.43795,
2000-09-06, 02:40:00,VALID,916.889,VALID,0,VALID,99.7434,VALID,0.0169808,VALID,19.2238,VALID,223,VALID,1.39263,
2000-09-06, 02:41:00,VALID,916.878,VALID,0,VALID,99.765,VALID,0.0169808,VALID,19.2435,VALID,233,VALID,1.32053,
2000-09-06, 02:42:00,VALID,916.876,VALID,0,VALID,99.779,VALID,0.0169808,VALID,19.2559,VALID,226,VALID,1.30954,
2000-09-06, 02:43:00,VALID,916.865,VALID,0,VALID,99.7879,VALID,0.0339617,VALID,19.2718,VALID,225,VALID,1.15378,
2000-09-06, 02:44:00,VALID,916.866,VALID,0,VALID,99.7879,VALID,0,VALID,19.2882,VALID,220,VALID,1.26377,
2000-09-06, 02:45:00,VALID,916.87,VALID,0,VALID,99.7943,VALID,0.0339617,VALID,19.2979,VALID,233,VALID,1.15434,
2000-09-06, 02:46:00,VALID,916.878,VALID,0,VALID,99.7993,VALID,0.0169808,VALID,19.3108,VALID,227,VALID,0.699519,
2000-09-06, 02:47:00,VALID,916.861,VALID,0,VALID,99.8057,VALID,0,VALID,19.3205,VALID,232,VALID,0.716947,
2000-09-06, 02:48:00,VALID,916.861,VALID,0,VALID,99.8095,VALID,0.0339617,VALID,19.3304,VALID,229,VALID,0.619721,
2000-09-06, 02:49:00,VALID,916.858,VALID,0,VALID,99.8121,VALID,0.0339617,VALID,19.3429,VALID,232,VALID,0.91543,
2000-09-06, 02:50:00,VALID,916.862,VALID,0,VALID,99.8133,VALID,0.0169808,VALID,19.3563,VALID,237,VALID,0.747472,
2000-09-06, 02:51:00,VALID,916.862,VALID,0,VALID,99.8044,VALID,0.0339617,VALID,19.3625,VALID,262,VALID,0.533984,
2000-09-06, 02:52:00,VALID,916.87,VALID,0,VALID,99.8171,VALID,0.0339617,VALID,19.3722,VALID,235,VALID,0.357171,
2000-09-06, 02:53:00,VALID,916.885,VALID,0,VALID,99.8197,VALID,0.0339617,VALID,19.3851,VALID,251,VALID,0.456414,
2000-09-06, 02:54:00,VALID,916.884,VALID,0,VALID,99.8184,VALID,0.0509425,VALID,19.3886,VALID,248,VALID,0.251645,
2000-09-06, 02:55:00,VALID,916.895,VALID,0,VALID,99.8146,VALID,0.0679233,VALID,19.4047,VALID,224,VALID,0.331641,
2000-09-06, 02:56:00,VALID,916.875,VALID,0,VALID,99.7981,VALID,0,VALID,19.4047,VALID,224,VALID,0.368164,
2000-09-06, 02:57:00,VALID,916.888,VALID,0,VALID,99.7892,VALID,0,VALID,19.3978,VALID,201,VALID,0.412059,
2000-09-06, 02:58:00,VALID,916.872,VALID,0,VALID,99.7701,VALID,0,VALID,19.3849,VALID,145,VALID,0.447368,
2000-09-06, 02:59:00,VALID,916.854,VALID,0,VALID,99.7485,VALID,-0.0169808,VALID,19.3496,VALID,123,VALID,0.609575,
2000-09-06, 03:00:00,VALID,916.831,VALID,0,VALID,99.7383,VALID,-0.0339617,VALID,19.3374,VALID,105,VALID,0.772236,
2000-09-06, 03:01:00,VALID,916.8,VALID,0,VALID,99.7497,VALID,-0.0679233,VALID,19.3538,VALID,95,VALID,1.01098,
2000-09-06, 03:02:00,VALID,916.773,VALID,0,VALID,99.7345,VALID,-0.0509425,VALID,19.3406,VALID,96,VALID,1.0645,
2000-09-06, 03:03:00,VALID,916.751,VALID,0,VALID,99.7103,VALID,-0.0169808,VALID,19.3141,VALID,99,VALID,0.839193,
2000-09-06, 03:04:00,VALID,916.749,VALID,0,VALID,99.6696,VALID,-0.0339617,VALID,19.2758,VALID,112,VALID,0.708984,
2000-09-06, 03:05:00,VALID,916.763,VALID,0,VALID,99.6391,VALID,-0.0679233,VALID,19.2504,VALID,122,VALID,0.989453,
2000-09-06, 03:06:00,VALID,916.77,VALID,0,VALID,99.6404,VALID,-0.0339617,VALID,19.2402,VALID,120,VALID,1.2234,
2000-09-06, 03:07:00,VALID,916.773,VALID,0,VALID,99.6544,VALID,0,VALID,19.2666,VALID,124,VALID,1.11819,
2000-09-06, 03:08:00,VALID,916.795,VALID,0,VALID,99.62,VALID,0,VALID,19.2472,VALID,129,VALID,1.28289,
2000-09-06, 03:09:00,VALID,916.824,VALID,0,VALID,99.5946,VALID,-0.0339617,VALID,19.237,VALID,123,VALID,1.38205,
2000-09-06, 03:10:00,VALID,916.849,VALID,0,VALID,99.5539,VALID,0,VALID,19.2042,VALID,121,VALID,1.42829,
2000-09-06, 03:11:00,VALID,916.868,VALID,0,VALID,99.512,VALID,-0.0509425,VALID,19.1821,VALID,122,VALID,1.46664,
2000-09-06, 03:12:00,VALID,916.871,VALID,0,VALID,99.5132,VALID,0,VALID,19.1592,VALID,119,VALID,1.52441,
2000-09-06, 03:13:00,VALID,916.875,VALID,0,VALID,99.5539,VALID,0,VALID,19.1756,VALID,133,VALID,1.22175,
2000-09-06, 03:14:00,VALID,916.858,VALID,0,VALID,99.5692,VALID,0,VALID,19.202,VALID,150,VALID,1.21998,
2000-09-06, 03:15:00,VALID,916.861,VALID,0,VALID,99.5844,VALID,-0.0339617,VALID,19.1948,VALID,172,VALID,1.19658,
2000-09-06, 03:16:00,VALID,916.848,VALID,0,VALID,99.5539,VALID,0,VALID,19.205,VALID,196,VALID,0.986779,
2000-09-06, 03:17:00,VALID,916.843,VALID,0,VALID,99.5323,VALID,0,VALID,19.1851,VALID,201,VALID,0.90602,
2000-09-06, 03:18:00,VALID,916.816,VALID,0,VALID,99.4891,VALID,0,VALID,19.1597,VALID,213,VALID,1.18329,
2000-09-06, 03:19:00,VALID,916.787,VALID,0,VALID,99.5094,VALID,0,VALID,19.1463,VALID,221,VALID,1.16406,
2000-09-06, 03:20:00,VALID,916.77,VALID,0,VALID,99.5921,VALID,-0.0169808,VALID,19.159,VALID,217,VALID,1.28429,
2000-09-06, 03:21:00,VALID,916.755,VALID,0,VALID,99.6111,VALID,-0.0169808,VALID,19.192,VALID,211,VALID,1.04899,
2000-09-06, 03:22:00,VALID,916.764,VALID,0,VALID,99.615,VALID,-0.0169808,VALID,19.1913,VALID,192,VALID,1.04141,
2000-09-06, 03:23:00,VALID,916.784,VALID,0,VALID,99.6035,VALID,-0.0169808,VALID,19.1821,VALID,174,VALID,1.03063,
2000-09-06, 03:24:00,VALID,916.783,VALID,0,VALID,99.6353,VALID,-0.0509425,VALID,19.1886,VALID,167,VALID,1.23142,
2000-09-06, 03:25:00,VALID,916.781,VALID,0,VALID,99.6073,VALID,0,VALID,19.1752,VALID,159,VALID,0.897236,
2000-09-06, 03:26:00,VALID,916.77,VALID,0,VALID,99.6086,VALID,-0.0169808,VALID,19.1655,VALID,171,VALID,0.767027,
2000-09-06, 03:27:00,VALID,916.761,VALID,0,VALID,99.6429,VALID,-0.0339617,VALID,19.1886,VALID,183,VALID,0.61102,
2000-09-06, 03:28:00,VALID,916.739,VALID,0,VALID,99.6315,VALID,-0.0169808,VALID,19.202,VALID,181,VALID,0.484586,
2000-09-06, 03:29:00,VALID,916.724,VALID,0,VALID,99.6429,VALID,-0.0169808,VALID,19.192,VALID,177,VALID,0.548077,
2000-09-06, 03:30:00,VALID,916.686,VALID,0,VALID,99.6607,VALID,-0.0509425,VALID,19.2179,VALID,167,VALID,0.505912,
2000-09-06, 03:31:00,VALID,916.662,VALID,0,VALID,99.648,VALID,-0.0169808,VALID,19.2114,VALID,168,VALID,0.533995,
2000-09-06, 03:32:00,VALID,916.642,VALID,0,VALID,99.648,VALID,-0.0169808,VALID,19.2184,VALID,208,VALID,0.792302,
2000-09-06, 03:33:00,VALID,916.627,VALID,0,VALID,99.6124,VALID,-0.0169808,VALID,19.1915,VALID,218,VALID,1.14171,
2000-09-06, 03:34:00,VALID,916.62,VALID,0,VALID,99.676,VALID,-0.0339617,VALID,19.2273,VALID,202,VALID,0.910742,